Погода в Нязепетровске

Россия / Челябинская область     56°03′13″N   59°36′34″E
темп.,
°C
ветер,
м/с
пор.,
м/с
влажн.,
%
обл.,
%
осадки,
мм/ч
давл.,
гПа
погр.,
м
26 сентября, вс
вс2623:00+10вюв41241100 0.0 1016420
02:00+8юв31056100 0.1 1016523
05:00+7в41272100 0.2 1016523
08:00+7в5155495 0.0 1015572
11:00+10вюв71549100 0.0 1014727
14:00+10вюв61261100 0.1 1015879
17:00+7вюв61270100 0.8 1016865
20:00+5вюв61391100 1.8 1017918
27 сентября, пн
пн2723:00+2в61592100 7.1 1017771
02:00+2в61480100 1.3 1017773
05:00+1в61582100 1.8 1017894
08:00+1в71684100 0.1 1018836
11:00+3в71673100 0.2 1018951
14:00+4в61562100 0.0 10191312
17:00+5всв71554100 0.0 10191445
20:00+4в71557100 0.0 10211487
28 сентября, вт
вт2823:00+3всв7136664 0.0 10221168
02:000всв614787 0.0 1023809
05:000всв5148375 0.0 1023870
08:00+2всв51176100 0.0 10241387
11:00+4всв6117083 0.1 10241499
14:00+6всв5953100 0.1 10231666
17:00+5св485527 0.1 10241542
20:00+1ссв39715 0.0 1025286
29 сентября, ср
ср2923:000с298263 0.0 1026199
02:00−1ссв288787 0.0 1026191
05:00−2ссв28945 0.0 1027172
08:00−1ссв2108931 0.0 1028276
11:00+5св465485 0.0 10271321
14:00+8св354399 0.0 10271762
17:00+7ссв344751 0.0 10271351
20:00+1ссв227086 0.0 102829
30 сентября, чт
чт3023:000ссв227770 0.0 102919
02:00−1с118353 0.0 102914
05:00−2сз1190100 0.0 103010
08:00−1зсз1181100 0.0 102960
11:00+5сз245765 0.0 1029682
14:00+7сз344564 0.0 10271424
17:00+6зсз345290 0.0 10261233
20:00+1зсз22755 0.0 102726